ITEST KHYA-KRKD

Flight info

Callsign ITEST
Flight time N/A
Altitude 3500
Route LFV OCAGO
Aircraft C185/L-VGD/A

Departure

Time 2026-04-23 15:58
Airport Cape Cod Gateway Airport (KHYA)

Arrival

Time N/A
Airport Knox County Regional Airport (KRKD)
Time Latitude Longitude Altitude Speed Heading
2026-04-23 15:55 41.65674 -70.52449 122 ft 0 kts 133°
2026-04-23 15:55 41.65673 -70.52446 119 ft 5 kts 133°
2026-04-23 15:56 41.65585 -70.52294 120 ft 26 kts 126°
2026-04-23 15:56 41.65483 -70.52121 119 ft 21 kts 119°
2026-04-23 15:56 41.65531 -70.51977 121 ft 18 kts 38°
2026-04-23 15:56 41.65560 -70.51945 121 ft 0 kts 39°
2026-04-23 15:57 41.65605 -70.51901 121 ft 12 kts 21°
2026-04-23 15:58 41.65713 -70.52052 123 ft 52 kts 305°
2026-04-23 15:58 41.65979 -70.52555 520 ft 67 kts 296°
2026-04-23 15:58 41.66334 -70.53187 859 ft 100 kts 282°
2026-04-23 15:58 41.65890 -70.52923 902 ft 136 kts 122°
2026-04-23 15:59 41.65489 -70.51927 1621 ft 124 kts 117°
2026-04-23 15:59 41.65911 -70.51253 168 ft 134 kts 332°
2026-04-23 15:59 41.66048 -70.51753 318 ft 115 kts 227°
2026-04-23 15:59 41.65782 -70.51610 459 ft 106 kts 28°
2026-04-23 16:00 41.66367 -70.51421 1072 ft 71 kts 322°
2026-04-23 16:00 41.66744 -70.51847 1404 ft 69 kts 250°
2026-04-23 16:00 41.66514 -70.52091 1380 ft 73 kts 315°
2026-04-23 16:00 41.66183 -70.52282 1445 ft 71 kts 239°
2026-04-23 16:01 41.65822 -70.52515 1646 ft 65 kts 221°
2026-04-23 16:01 41.65541 -70.52297 1787 ft 99 kts 54°
2026-04-23 16:01 41.65887 -70.51503 2430 ft 64 kts
2026-04-23 16:01 41.66453 -70.51450 2533 ft 108 kts
2026-04-23 16:02 41.67035 -70.51697 2645 ft 128 kts 268°
2026-04-23 16:02 41.67159 -70.52868 2744 ft 135 kts 309°
2026-04-23 16:02 41.67901 -70.53658 2754 ft 138 kts 302°
2026-04-23 16:02 41.67284 -70.54607 2956 ft 155 kts 209°
2026-04-23 16:03 41.66897 -70.54045 3509 ft 137 kts 33°
2026-04-23 16:03 41.66867 -70.53166 3749 ft 140 kts 139°
2026-04-23 16:03 41.66673 -70.52393 3423 ft 107 kts 240°
2026-04-23 16:03 41.66457 -70.51609 3580 ft 98 kts 52°
2026-04-23 16:04 41.66771 -70.51079 4048 ft 62 kts 10°
2026-04-23 16:04 41.67179 -70.50610 4373 ft 83 kts 54°
2026-04-23 16:04 41.66903 -70.50102 4534 ft 82 kts 239°
2026-04-23 16:04 41.67008 -70.50110 4703 ft 88 kts 60°
2026-04-23 16:05 41.67196 -70.49412 3869 ft 146 kts 47°
2026-04-23 16:05 41.68217 -70.50066 3082 ft 146 kts 314°
2026-04-23 16:05 41.69139 -70.50815 2062 ft 170 kts 341°
2026-04-23 16:05 41.65863 -70.52951 123 ft 0 kts 129°